Regional Weather Roundup
Issued by NWS

Home | Current Version | Previous Version | Text Only | Print | Product List | Glossary Off
Versions: 1 2 3 4 5 6 7 8 9 10 11 12 13 14 15 16 17 18 19 20 21 22 23 24 25 26 27 28 29 30 31 32 33 34 35 36 37 38 39 40 41 42 43 44 45 46 47 48 49 50

000
ASUS43 KMPX 290101
RWRMN
WEATHER ROUNDUP FOR MINNESOTA
NATIONAL WEATHER SERVICE TWIN CITIES/CHANHASSEN MN
700 PM CST SUN DEC 28 2014


NOTE: "FAIR" INDICATES FEW OR NO CLOUDS BELOW 12,000 FEET WITH NO
SIGNIFICANT WEATHER AND/OR OBSTRUCTIONS TO VISIBILITY. N/A MEANS
CURRENT SKY AND/OR WEATHER CONDITIONS ARE NOT AVAILABLE.

MNZ060>063-068>070-290200-
   Twin Cities Metro

CITY           SKY/WX    TMP DP  RH WIND       PRES   REMARKS
TWIN CITIES    PTCLDY    15   7  70 N7        30.28R WCI   5
ST PAUL        CLEAR     17   8  67 N7        30.29R WCI   8
CRYSTAL        CLEAR     14   4  64 N3        30.27R
LAKEVILLE      PTCLDY    10   9  92 CALM      30.26R FOG
EDEN PRAIRIE   PTCLDY    16   9  74 N5        30.26R WCI   9
SOUTH ST PAUL  PTCLDY    18   9  69 N3        30.27S
LAKE ELMO      FAIR      14   9  79 N5        30.27R WCI   6
$$
MNZ001>005-007-008-013>017-022>024-027-028-290200-
   Northwest Minnesota

CITY           SKY/WX    TMP DP  RH WIND       PRES   REMARKS
BEMIDJI        CLEAR     -4  -8  81 W7        30.31R WCI -18
HALLOCK        CLEAR     -6 -13  71 N8        30.43R WCI -21
ROSEAU         FAIR      -6 -11  77 NW9       30.38R WCI -22
WARROAD        CLEAR     -6 -11  77 NW8       30.36R WCI -21
THIEF RVR FALL CLEAR     -6 -11  77 NW8       30.38R WCI -21
CROOKSTON      CLEAR     -6  -9  84 N9        30.44R WCI -22
FOSSTON        FAIR      -8 -11  84 CALM      30.36R
DETROIT LAKES  CLEAR      3  -2  78 N8        30.33R WCI -10
MOORHEAD       CLEAR      0  -4  85 N10G16    30.40R WCI -17
PARK RAPIDS    CLEAR      4  -5  66 N8        30.29R WCI  -9
MAHNOMEN       FAIR      -3  -8  78 N6        30.35R WCI -15
$$
MNZ006-009>011-018-025>026-290200-
   North Central Minnesota

CITY           SKY/WX    TMP DP  RH WIND       PRES   REMARKS
BAUDETTE       CLEAR     -5 -10  79 VRB3      30.32R
FLAG ISLAND    CLEAR     -6 -13  71 NW14      30.35R WCI -26
INTL FALLS     CLEAR     -5 -12  72 NW8       30.30R WCI -20
WASKISH        CLEAR      0  -8  71 NW9       30.33R WCI -16
BIG FORK       CLEAR      0  -8  71 CALM      30.30R
LONGVILLE      CLEAR      3  -2  78 CALM      30.29R
GRAND RAPIDS   CLEAR      3  -6  66 NW9       30.26R WCI -11
CRANE LAKE     CLEAR     -2  -9  71 CALM      30.31R
ORR            CLEAR     -2  -9  71 NW8       30.25R WCI -17
COOK           CLEAR     -2  -8  78 CALM      30.27R
WALKER         FAIR       1  -6  71 NW3       30.30R
$$
MNZ012-019>021-037-290200-
   Northeast Minnesota

CITY           SKY/WX    TMP DP  RH WIND       PRES   REMARKS
DULUTH         CLEAR      5  -5  63 NW8       30.23R WCI  -8
ELY            CLEAR     -2  -8  78 CALM      30.24R
HIBBING        CLEAR     -2  -9  72 NW3       30.26R
EVELETH        CLEAR      3  -6  66 W6        30.26R WCI  -8
DULUTH HARBOR  CLEAR     12   0  57 CALM      30.33R
TWO HARBORS    CLEAR      9  -2  61 CALM      30.24R
SILVER BAY     CLEAR      5  -4  66 CALM      30.23R
GRAND MARAIS     N/A      5  -5  63 W3        30.28R
G MARAIS ARPRT PTCLDY    -2  -9  71 NW13G22   30.12R WCI -21
$$
MNZ029>031-032-039>041-046>048-054>057-064-290200-
   West Central Minnesota

CITY           SKY/WX    TMP DP  RH WIND       PRES   REMARKS
FERGUS FALLS   CLEAR      3  -2  78 N6        30.36R WCI  -8
WHEATON        PTCLDY     3   0  85 N14       30.35S WCI -15
MORRIS         PTCLDY    10   5  79 N13       30.28R WCI  -5
ALEXANDRIA     CLEAR     12   1  61 NE8       30.27R WCI   0
ELBOW LAKE     FAIR       9   3  78 N12       30.30R WCI  -6
WADENA         CLEAR      7   0  72 N5        30.29R WCI  -2
GLENWOOD       CLEAR     10   1  67 N9        30.26S WCI  -2
APPLETON       PTCLDY    12   7  79 N17       30.28R WCI  -5
BENSON         PTCLDY    10   7  85 N7        30.27S WCI   0
ORTONVILLE     FAIR       9   1  72 N14G20    30.30R WCI  -8
MADISON        MOCLDY    14   9  79 N9        30.29R WCI   2
WILLMAR        FAIR      16   7  67 N7        30.27R WCI   6
$$
MNZ033>034-036-042>043-049>051-058-059-290200-
   Central Minnesota

CITY           SKY/WX    TMP DP  RH WIND       PRES   REMARKS
ST CLOUD       CLEAR     14   3  61 N6        30.28R WCI   5
SAUK CENTRE    FAIR      12   0  57 N8        30.28R WCI   1
PAYNESVILLE    PTCLDY    10   3  74 N5        30.26S WCI   1
AITKIN         CLEAR      9   0  66 NW5       30.28R WCI   0
PINE RIVER     CLEAR      3  -2  78 NW3       30.33R
BRAINERD       CLEAR      7  -3  64 N6        30.30R WCI  -3
STAPLES        CLEAR      7  -2  66 N5        30.30R WCI  -2
LONG PRAIRIE   FAIR      10   1  67 N6        30.28R WCI   1
LITTLE FALLS   CLEAR     12   0  57 CALM      30.30R
LITCHFIELD     PTCLDY    14   7  73 CALM      30.27R
BUFFALO        CLEAR     14   2  59 N5        30.28S WCI   6
MAPLE LAKE     CLEAR     13   6  72 N5        30.28R WCI   5
$$
MNZ037-044-045-052-053-290200-
   East Central Minnesota

CITY           SKY/WX    TMP DP  RH WIND       PRES   REMARKS
PRINCETON      CLEAR     12   1  62 N6        30.28R WCI   3
MORA           CLEAR      9   1  72 N3        30.30R
CAMBRIDGE      CLEAR     14   3  62 N6        30.27R WCI   5
RUSH CITY      CLEAR      6   0  76 CALM      30.30R
MOOSE LAKE     CLEAR      7  -4  61 N3        30.27R
HINCKLEY       FAIR      10   0  61 CALM      30.29R
CLOQUET        CLEAR      3  -6  66 W5        30.26R WCI  -6
MCGREGOR       CLEAR      5   1  85 NW5       30.29R WCI  -4
$$
MNZ071>073-080-081-089-090-097-098-290200-
   Southwest Minnesota

CITY           SKY/WX    TMP DP  RH WIND       PRES   REMARKS
MONTEVIDEO     MOCLDY    14   9  79 N8        30.28R WCI   3
GRANITE FALLS  CLOUDY    16  11  83 NW9       30.28R WCI   4
CANBY          CLOUDY    12   7  80 N8        30.29R WCI   0
MARSHALL       CLOUDY    16   9  73 N14       30.25R WCI   1
REDWOOD FALLS  CLOUDY    20  14  77 NE7       30.25R WCI  11
OLIVIA         MOCLDY    18  12  79 N7        30.25R WCI   8
PIPESTONE      MOCLDY    16  14  93 NE10      30.18R WCI   3
WINDOM         CLOUDY    18  18 100 NE5       30.22R WCI  11
WORTHINGTON    CLOUDY    18 -26  13 E14       30.20R WCI   4
JACKSON        CLOUDY    19  18  93 NE10      30.21R FOG     WCI   8
TRACY          CLOUDY    18  15  90 N13       30.23R WCI   4
SLAYTON        CLOUDY    16  14  93 N12       30.20R WCI   3
$$
MNZ065>067-074>077-082>085-091>093-290200-
   South Central Minnesota

CITY           SKY/WX    TMP DP  RH WIND       PRES   REMARKS
MANKATO        MOCLDY    14   9  79 NE5       30.23R WCI   6
NEW ULM        MOCLDY    18  16  93 CALM      30.24R
ST JAMES       CLOUDY    18  16  93 CALM      30.24S FOG
FAIRMONT       CLOUDY    18  16  93 N7        30.22R WCI   8
GLENCOE        MOCLDY    18  11  75 N6        30.25S WCI  10
FARIBAULT      PTCLDY    12  10  92 N3        30.24S
OWATONNA       PTCLDY    12  10  92 NE3       30.22S
ALBERT LEA     PTCLDY    12  10  92 NE6       30.21R WCI   3
$$
MNZ078>079-086>088-094>096-290200-
   Southeast Minnesota

CITY           SKY/WX    TMP DP  RH WIND       PRES   REMARKS
ROCHESTER      CLEAR     14  10  84 N7        30.21S WCI   4
RED WING       CLEAR     12   9  85 N5        30.26R WCI   4
STANTON        PTCLDY    11   7  85 CALM      30.24R FOG
DODGE CENTER   PTCLDY    14  12  92 N3        30.21S
WINONA         CLEAR     18  16  93 NW3       30.27R
AUSTIN         PTCLDY    14  10  85 N6        30.20S WCI   5
PRESTON        PTCLDY    14  11  89 N6        30.21R WCI   5
$$
ABBREVIATIONS USED IN REMARKS
   TC - TEMPERATURES IN CELSIUS
  WCI - WIND CHILL INDEX
   HX - HEAT INDEX
  VSB - VISIBILITY
$$


USA.gov is the U.S. government's official web portal to all federal, state and local government web resources and services.